| time (UTC) | temp F | wind direction | speed MPH | gust MPH | rain 1hr in | rain 24hr in | rain mn in | humidity % | barometer mb |
| 20260906110513 | 72 | 61 | 2.0 | 5.0 | 0.00 | 0.00 | 0.00 | 95 | 998.1 |
| 20260906105521 | 72 | 62 | 1.0 | 3.0 | 0.00 | 0.00 | 0.00 | 95 | 997.9 |
| 20260906104529 | 72 | 87 | 1.0 | 2.0 | 0.00 | 0.00 | 0.00 | 94 | 997.8 |
| 20260906103539 | 72 | 44 | 2.0 | 5.0 | 0.00 | 0.00 | 0.00 | 94 | 997.6 |
| 20260906102527 | 73 | 33 | 1.0 | 4.0 | 0.00 | 0.00 | 0.00 | 93 | 997.7 |
| 20260906101557 | 73 | 73 | 1.0 | 3.0 | 0.00 | 0.00 | 0.00 | 93 | 997.4 |
| 20260906100524 | 73 | 106 | 1.0 | 3.0 | 0.00 | 0.00 | 0.00 | 92 | 997.6 |
| 20260906095514 | 73 | 90 | 0.0 | 3.0 | 0.00 | 0.00 | 0.00 | 92 | 997.5 |
| 20260906094542 | 73 | 41 | 0.0 | 2.0 | 0.00 | 0.00 | 0.00 | 91 | 997.4 |
| 20260906093530 | 73 | 0.0 | 0.0 | 0.00 | 0.00 | 0.00 | 91 | 997.3 | |
| 20260906092539 | 73 | 23 | 0.0 | 2.0 | 0.00 | 0.00 | 0.00 | 90 | 997.4 |
| 20260906091528 | 73 | 45 | 0.0 | 3.0 | 0.00 | 0.00 | 0.00 | 89 | 997.3 |
| 20260906090517 | 74 | 45 | 2.0 | 3.0 | 0.00 | 0.00 | 0.00 | 89 | 997.3 |
| 20260906085525 | 73 | 51 | 1.0 | 3.0 | 0.00 | 0.00 | 0.00 | 89 | 997.3 |
| 20260906084533 | 73 | 0.0 | 0.0 | 0.00 | 0.00 | 0.00 | 88 | 997.4 | |
| 20260906083542 | 73 | 56 | 2.0 | 4.0 | 0.00 | 0.00 | 0.00 | 88 | 997.2 |
| 20260906082531 | 73 | 29 | 2.0 | 4.0 | 0.00 | 0.00 | 0.00 | 88 | 997.3 |
| 20260906081520 | 74 | 71 | 1.0 | 3.0 | 0.00 | 0.00 | 0.00 | 88 | 997.3 |
| 20260906080548 | 74 | 89 | 2.0 | 4.0 | 0.00 | 0.00 | 0.00 | 88 | 997.4 |
| 20260906075517 | 74 | 77 | 3.0 | 5.0 | 0.00 | 0.00 | 0.00 | 87 | 997.4 |
| 20260906074525 | 74 | 61 | 2.0 | 6.0 | 0.00 | 0.00 | 0.00 | 87 | 997.3 |
| 20260906073533 | 74 | 28 | 3.0 | 5.0 | 0.00 | 0.00 | 0.00 | 87 | 997.3 |
| 20260906072523 | 74 | 75 | 4.0 | 5.0 | 0.00 | 0.00 | 0.00 | 87 | 997.4 |
| 20260906071531 | 74 | 43 | 2.0 | 4.0 | 0.00 | 0.00 | 0.00 | 87 | 997.4 |
| 20260906070520 | 74 | 95 | 2.0 | 4.0 | 0.00 | 0.00 | 0.00 | 87 | 997.6 |
| 20260906065528 | 75 | 44 | 4.0 | 6.0 | 0.00 | 0.00 | 0.00 | 87 | 997.5 |
| 20260906064536 | 75 | 74 | 3.0 | 5.0 | 0.00 | 0.00 | 0.00 | 86 | 997.6 |
| 20260906063526 | 75 | 48 | 5.0 | 7.0 | 0.00 | 0.00 | 0.00 | 86 | 997.5 |
| 20260906062534 | 75 | 46 | 4.0 | 6.0 | 0.00 | 0.00 | 0.00 | 87 | 997.4 |
| 20260906061446 | 75 | 23 | 5.0 | 8.0 | 0.00 | 0.00 | 0.00 | 87 | 997.6 |
| 20260906060454 | 75 | 35 | 5.0 | 9.0 | 0.00 | 0.00 | 0.00 | 88 | 997.6 |
| 20260906055443 | 74 | 51 | 3.0 | 6.0 | 0.00 | 0.00 | 0.00 | 88 | 997.6 |
| 20260906054451 | 74 | 43 | 4.0 | 6.0 | 0.00 | 0.00 | 0.00 | 89 | 997.5 |
| 20260906053521 | 74 | 19 | 4.0 | 9.0 | 0.00 | 0.00 | 0.00 | 89 | 997.5 |
| 20260906052448 | 74 | 43 | 4.0 | 5.0 | 0.00 | 0.00 | 0.00 | 90 | 997.3 |
| 20260906051457 | 74 | 56 | 4.0 | 7.0 | 0.00 | 0.00 | 0.00 | 90 | 997.2 |
| 20260906050446 | 74 | 42 | 3.0 | 5.0 | 0.00 | 0.00 | 0.00 | 90 | 997.2 |
| 20260906045454 | 74 | 36 | 4.0 | 8.0 | 0.00 | 0.00 | 0.00 | 90 | 997.3 |
| 20260906044443 | 74 | 56 | 4.0 | 6.0 | 0.00 | 0.00 | 0.00 | 90 | 996.9 |
| 20260906043451 | 74 | 64 | 3.0 | 4.0 | 0.00 | 0.00 | 0.00 | 90 | 996.8 |
| 20260906042440 | 74 | 41 | 5.0 | 7.0 | 0.00 | 0.00 | 0.00 | 90 | 996.6 |
| 20260906041448 | 74 | 40 | 6.0 | 9.0 | 0.00 | 0.00 | 0.00 | 90 | 996.6 |
| 20260906040456 | 74 | 43 | 4.0 | 6.0 | 0.00 | 0.00 | 0.00 | 90 | 996.6 |
| 20260906035446 | 74 | 53 | 5.0 | 8.0 | 0.00 | 0.00 | 0.00 | 90 | 996.4 |
| 20260906034514 | 74 | 16 | 7.0 | 9.0 | 0.00 | 0.00 | 0.00 | 90 | 996.5 |
| 20260906033443 | 74 | 25 | 6.0 | 9.0 | 0.00 | 0.00 | 0.00 | 90 | 996.5 |
| 20260906032451 | 75 | 21 | 7.0 | 9.0 | 0.00 | 0.00 | 0.00 | 90 | 996.6 |
| 20260906031459 | 75 | 34 | 7.0 | 9.0 | 0.00 | 0.00 | 0.00 | 89 | 996.4 |
| 20260906030448 | 75 | 61 | 6.0 | 8.0 | 0.00 | 0.00 | 0.00 | 89 | 996.5 |
| 20260906025455 | 75 | 23 | 6.0 | 9.0 | 0.00 | 0.00 | 0.00 | 89 | 996.4 |
| 20260906024445 | 75 | 28 | 6.0 | 9.0 | 0.00 | 0.00 | 0.00 | 89 | 996.4 |
| 20260906023513 | 75 | 29 | 6.0 | 8.0 | 0.00 | 0.00 | 0.00 | 89 | 996.3 |
| 20260906022501 | 75 | 359 | 5.0 | 7.0 | 0.00 | 0.00 | 0.00 | 88 | 996.3 |
| 20260906021511 | 75 | 26 | 7.0 | 9.0 | 0.00 | 0.00 | 0.00 | 88 | 996.5 |
| 20260906020458 | 75 | 36 | 7.0 | 10.0 | 0.00 | 0.00 | 0.00 | 88 | 996.6 |
| 20260906015448 | 75 | 33 | 6.0 | 8.0 | 0.00 | 0.00 | 0.00 | 89 | 996.7 |
| 20260906014457 | 75 | 26 | 9.0 | 12.0 | 0.00 | 0.00 | 0.00 | 89 | 996.5 |
| 20260906013445 | 74 | 27 | 7.0 | 12.0 | 0.00 | 0.00 | 0.00 | 89 | 996.6 |
| 20260906012453 | 74 | 51 | 6.0 | 9.0 | 0.00 | 0.00 | 0.00 | 89 | 996.4 |
| 20260906011501 | 74 | 19 | 7.0 | 9.0 | 0.00 | 0.00 | 0.00 | 89 | 996.2 |
| 20260906010510 | 74 | 50 | 7.0 | 11.0 | 0.00 | 0.00 | 0.00 | 89 | 996.3 |
| 20260906005518 | 74 | 45 | 6.0 | 9.0 | 0.00 | 0.00 | 0.00 | 89 | 996.0 |
| 20260906004447 | 74 | 50 | 7.0 | 12.0 | 0.00 | 0.00 | 0.00 | 89 | 996.0 |
| 20260906003455 | 74 | 41 | 9.0 | 11.0 | 0.00 | 0.00 | 0.00 | 89 | 995.8 |
| 20260906002503 | 74 | 5 | 8.0 | 9.0 | 0.00 | 0.00 | 0.00 | 89 | 996.0 |
| 20260906001452 | 74 | 50 | 8.0 | 15.0 | 0.00 | 0.00 | 0.00 | 87 | 996.0 |
| 20260906000501 | 74 | 19 | 7.0 | 9.0 | 0.00 | 0.00 | 0.00 | 87 | 995.9 |
| 20260905235450 | 75 | 31 | 10.0 | 15.0 | 0.00 | 0.00 | 0.00 | 86 | 995.9 |
| 20260905234458 | 75 | 57 | 8.0 | 12.0 | 0.00 | 0.00 | 0.00 | 86 | 995.8 |
| 20260905233525 | 75 | 26 | 6.0 | 12.0 | 0.00 | 0.00 | 0.00 | 86 | 995.7 |
| 20260905232455 | 76 | 32 | 7.0 | 11.0 | 0.00 | 0.00 | 0.00 | 86 | 995.7 |
| 20260905231503 | 77 | 31 | 7.0 | 10.0 | 0.00 | 0.00 | 0.00 | 85 | 995.6 |
| 20260905230452 | 77 | 20 | 11.0 | 15.0 | 0.00 | 0.00 | 0.00 | 84 | 995.6 |
| 20260905225500 | 78 | 25 | 10.0 | 13.0 | 0.00 | 0.00 | 0.00 | 82 | 995.3 |
| 20260905224508 | 79 | 8 | 6.0 | 8.0 | 0.00 | 0.00 | 0.00 | 81 | 995.3 |
| 20260905223457 | 80 | 21 | 8.0 | 10.0 | 0.00 | 0.00 | 0.00 | 80 | 995.5 |
| 20260905222504 | 81 | 44 | 7.0 | 11.0 | 0.00 | 0.00 | 0.00 | 78 | 995.4 |
| 20260905221454 | 81 | 43 | 6.0 | 9.0 | 0.00 | 0.00 | 0.00 | 77 | 995.4 |
| 20260905220501 | 82 | 357 | 6.0 | 9.0 | 0.00 | 0.00 | 0.00 | 75 | 995.3 |
| 20260905215509 | 84 | 29 | 6.0 | 10.0 | 0.00 | 0.00 | 0.00 | 72 | 995.3 |
| 20260905214459 | 84 | 34 | 7.0 | 8.0 | 0.00 | 0.00 | 0.00 | 73 | 995.2 |
| 20260905213507 | 84 | 19 | 5.0 | 7.0 | 0.00 | 0.00 | 0.00 | 73 | 995.1 |
| 20260905212457 | 83 | 49 | 6.0 | 9.0 | 0.00 | 0.00 | 0.00 | 73 | 995.1 |
| 20260905211504 | 84 | 55 | 7.0 | 14.0 | 0.00 | 0.00 | 0.00 | 70 | 994.9 |
| 20260905210453 | 86 | 28 | 6.0 | 11.0 | 0.00 | 0.00 | 0.00 | 68 | 995.1 |
| 20260905205502 | 84 | 48 | 4.0 | 5.0 | 0.00 | 0.00 | 0.00 | 72 | 995.1 |
| 20260905204510 | 84 | 26 | 4.0 | 6.0 | 0.00 | 0.00 | 0.00 | 73 | 995.2 |
| 20260905203519 | 84 | 52 | 5.0 | 8.0 | 0.00 | 0.00 | 0.00 | 72 | 995.2 |
| 20260905202526 | 84 | 7 | 4.0 | 7.0 | 0.00 | 0.00 | 0.00 | 72 | 995.1 |
| 20260905201456 | 84 | 24 | 6.0 | 7.0 | 0.00 | 0.00 | 0.00 | 71 | 995.1 |
| 20260905200504 | 86 | 32 | 8.0 | 11.0 | 0.00 | 0.00 | 0.00 | 69 | 995.2 |
| 20260905195513 | 86 | 48 | 4.0 | 7.0 | 0.00 | 0.00 | 0.00 | 70 | 995.2 |
| 20260905194501 | 86 | 52 | 7.0 | 10.0 | 0.00 | 0.00 | 0.00 | 69 | 995.1 |
| 20260905193510 | 86 | 60 | 6.0 | 12.0 | 0.00 | 0.00 | 0.00 | 69 | 995.3 |
| 20260905192459 | 87 | 87 | 6.0 | 9.0 | 0.00 | 0.00 | 0.00 | 69 | 995.3 |
| 20260905191507 | 86 | 53 | 6.0 | 9.0 | 0.00 | 0.00 | 0.00 | 70 | 995.4 |
| 20260905190516 | 85 | 51 | 5.0 | 8.0 | 0.00 | 0.00 | 0.00 | 73 | 995.5 |
| 20260905185505 | 86 | 21 | 8.0 | 11.0 | 0.00 | 0.00 | 0.00 | 71 | 995.3 |
| 20260905184533 | 86 | 16 | 5.0 | 10.0 | 0.00 | 0.00 | 0.00 | 70 | 995.3 |
| 20260905183542 | 86 | 10 | 4.0 | 8.0 | 0.00 | 0.00 | 0.00 | 71 | 995.4 |
| 20260905182531 | 87 | 7 | 5.0 | 10.0 | 0.00 | 0.00 | 0.00 | 69 | 995.5 |
| 20260905181459 | 87 | 91 | 5.0 | 7.0 | 0.00 | 0.00 | 0.00 | 69 | 995.3 |
| 20260905180508 | 86 | 60 | 5.0 | 7.0 | 0.00 | 0.00 | 0.00 | 71 | 995.3 |
| 20260905175517 | 86 | 14 | 4.0 | 7.0 | 0.00 | 0.00 | 0.00 | 72 | 995.3 |
| 20260905174505 | 87 | 19 | 6.0 | 8.0 | 0.00 | 0.00 | 0.00 | 70 | 995.3 |
| 20260905173514 | 87 | 24 | 7.0 | 9.0 | 0.00 | 0.00 | 0.00 | 70 | 995.3 |
| 20260905172503 | 87 | 29 | 7.0 | 10.0 | 0.00 | 0.00 | 0.00 | 70 | 995.2 |
| 20260905171508 | 88 | 69 | 7.0 | 9.0 | 0.00 | 0.00 | 0.00 | 68 | 995.2 |
| 20260905170516 | 87 | 36 | 5.0 | 7.0 | 0.00 | 0.00 | 0.00 | 69 | 995.3 |
| 20260905165506 | 88 | 40 | 5.0 | 7.0 | 0.00 | 0.00 | 0.00 | 69 | 995.4 |
| 20260905164513 | 87 | 35 | 7.0 | 10.0 | 0.00 | 0.00 | 0.00 | 70 | 995.5 |
| 20260905163502 | 88 | 37 | 7.0 | 10.0 | 0.00 | 0.00 | 0.00 | 69 | 995.5 |
| 20260905162510 | 87 | 46 | 5.0 | 6.0 | 0.00 | 0.00 | 0.00 | 71 | 995.4 |
| 20260905161519 | 87 | 18 | 5.0 | 9.0 | 0.00 | 0.00 | 0.00 | 71 | 995.4 |
| 20260905160508 | 87 | 38 | 5.0 | 8.0 | 0.00 | 0.00 | 0.00 | 70 | 995.2 |
| 20260905155516 | 87 | 54 | 5.0 | 8.0 | 0.00 | 0.00 | 0.00 | 68 | 995.2 |
| 20260905154525 | 87 | 30 | 5.0 | 7.0 | 0.00 | 0.00 | 0.00 | 70 | 995.2 |
| 20260905153513 | 87 | 66 | 5.0 | 8.0 | 0.00 | 0.00 | 0.00 | 69 | 995.0 |
| 20260905152520 | 86 | 29 | 4.0 | 6.0 | 0.00 | 0.00 | 0.00 | 71 | 995.0 |
| 20260905151530 | 86 | 29 | 4.0 | 6.0 | 0.00 | 0.00 | 0.00 | 73 | 994.8 |
| 20260905150517 | 85 | 39 | 6.0 | 10.0 | 0.00 | 0.00 | 0.00 | 73 | 994.8 |
| 20260905145527 | 84 | 27 | 5.0 | 7.0 | 0.00 | 0.00 | 0.00 | 74 | 995.0 |
| 20260905144515 | 84 | 57 | 6.0 | 8.0 | 0.00 | 0.00 | 0.00 | 77 | 994.8 |
| 20260905143504 | 84 | 29 | 7.0 | 9.0 | 0.00 | 0.00 | 0.00 | 77 | 994.6 |
| 20260905142512 | 83 | 37 | 5.0 | 7.0 | 0.00 | 0.00 | 0.00 | 78 | 994.6 |
| 20260905141520 | 83 | 47 | 7.0 | 8.0 | 0.00 | 0.00 | 0.00 | 79 | 994.5 |
| 20260905140550 | 82 | 20 | 5.0 | 8.0 | 0.00 | 0.00 | 0.00 | 82 | 994.3 |
| 20260905135518 | 81 | 29 | 7.0 | 10.0 | 0.00 | 0.00 | 0.00 | 84 | 994.3 |
| 20260905134507 | 81 | 70 | 5.0 | 9.0 | 0.00 | 0.00 | 0.00 | 86 | 994.5 |
| 20260905133514 | 79 | 21 | 4.0 | 5.0 | 0.00 | 0.00 | 0.00 | 90 | 994.7 |
| 20260905132522 | 79 | 42 | 4.0 | 5.0 | 0.00 | 0.00 | 0.00 | 89 | 994.8 |
| 20260905131512 | 78 | 45 | 3.0 | 4.0 | 0.00 | 0.00 | 0.00 | 92 | 994.5 |
| 20260905130520 | 77 | 39 | 2.0 | 5.0 | 0.00 | 0.00 | 0.00 | 94 | 994.2 |
| 20260905125509 | 77 | 69 | 2.0 | 5.0 | 0.00 | 0.00 | 0.00 | 94 | 994.3 |
| 20260905124537 | 77 | 13 | 3.0 | 4.0 | 0.00 | 0.00 | 0.00 | 95 | 994.1 |
| 20260905123546 | 77 | 40 | 4.0 | 6.0 | 0.00 | 0.00 | 0.00 | 95 | 993.9 |
| 20260905122514 | 77 | 31 | 3.0 | 5.0 | 0.00 | 0.00 | 0.00 | 94 | 994.0 |
| 20260905121523 | 77 | 25 | 2.0 | 4.0 | 0.00 | 0.00 | 0.00 | 95 | 993.7 |
| 20260905120512 | 77 | 54 | 3.0 | 5.0 | 0.00 | 0.00 | 0.00 | 95 | 993.8 |
| 20260905115600 | 77 | 45 | 1.0 | 3.0 | 0.00 | 0.00 | 0.00 | 95 | 993.6 |
| 20260905114510 | 77 | 63 | 2.0 | 5.0 | 0.00 | 0.00 | 0.00 | 95 | 993.3 |
| 20260905113518 | 77 | 54 | 2.0 | 4.0 | 0.00 | 0.00 | 0.00 | 94 | 993.2 |
| 20260905112525 | 77 | 44 | 3.0 | 5.0 | 0.00 | 0.00 | 0.00 | 94 | 993.0 |
| 20260905111515 | 77 | 43 | 3.0 | 4.0 | 0.00 | 0.00 | 0.00 | 94 | 992.9 |